contact:dominique.lefevre@mio.osupytheas.fr, maurice.libes@osupytheas.fr, didier.mallarino@osupytheas.fr
Project:EMSO http://www.emso-fr.org/EMSO-France
Depth: 2436.0 m
Title:EMSO Ligure Ouest : Data MII capteur MICROCAT
DateTime_Computer,Latitude,Longitude,Temperature,Conductivity,Pressure,DateTime_Instrument
DateTime_Computer,Latitude,Longitude,degC,S m-1,dbar,DateTime_Instrument
2023-11-25T00:00:51Z,42.805,6.029,13.3046,4.60135,2470.567,2023-11-25T02:03:19Z
2023-11-25T00:03:54Z,42.805,6.029,13.3043,4.60135,2470.53,2023-11-25T02:06:22Z
2023-11-25T00:06:57Z,42.805,6.029,13.3047,4.60127,2470.577,2023-11-25T02:09:25Z
2023-11-25T00:10:00Z,42.805,6.029,13.3039,4.60117,2470.567,2023-11-25T02:12:28Z
2023-11-25T00:13:03Z,42.805,6.029,13.3040,4.60119,2470.53,2023-11-25T02:15:31Z
2023-11-25T00:16:06Z,42.805,6.029,13.3038,4.60129,2470.553,2023-11-25T02:18:34Z
2023-11-25T00:19:09Z,42.805,6.029,13.3036,4.60126,2470.577,2023-11-25T02:21:37Z
2023-11-25T00:22:12Z,42.805,6.029,13.3039,4.60117,2470.577,2023-11-25T02:24:40Z
2023-11-25T00:25:15Z,42.805,6.029,13.3038,4.60115,2470.553,2023-11-25T02:27:43Z
2023-11-25T00:28:18Z,42.805,6.029,13.3037,4.60118,2470.553,2023-11-25T02:30:46Z
2023-11-25T00:31:21Z,42.805,6.029,13.3039,4.60119,2470.53,2023-11-25T02:33:49Z
2023-11-25T00:34:24Z,42.805,6.029,13.3044,4.60129,2470.567,2023-11-25T02:36:52Z
2023-11-25T00:37:28Z,42.805,6.029,13.3043,4.60127,2470.544,2023-11-25T02:39:56Z
2023-11-25T00:40:31Z,42.805,6.029,13.3039,4.60119,2470.553,2023-11-25T02:42:59Z
2023-11-25T00:43:34Z,42.805,6.029,13.3042,4.60129,2470.577,2023-11-25T02:46:02Z
2023-11-25T00:46:37Z,42.805,6.029,13.3042,4.60125,2470.577,2023-11-25T02:49:05Z
2023-11-25T00:49:40Z,42.805,6.029,13.3039,4.60114,2470.577,2023-11-25T02:52:08Z
2023-11-25T00:52:43Z,42.805,6.029,13.3040,4.60119,2470.591,2023-11-25T02:55:11Z
2023-11-25T00:55:46Z,42.805,6.029,13.3041,4.60114,2470.563,2023-11-25T02:58:14Z
2023-11-25T00:58:49Z,42.805,6.029,13.3037,4.60117,2470.6,2023-11-25T03:01:17Z
2023-11-25T01:01:52Z,42.805,6.029,13.3043,4.60131,2470.553,2023-11-25T03:04:20Z
2023-11-25T01:04:55Z,42.805,6.029,13.3046,4.60122,2470.577,2023-11-25T03:07:23Z
2023-11-25T01:07:58Z,42.805,6.029,13.3036,4.60115,2470.591,2023-11-25T03:10:26Z
2023-11-25T01:11:01Z,42.805,6.029,13.3041,4.60117,2470.591,2023-11-25T03:13:29Z
2023-11-25T01:14:04Z,42.805,6.029,13.3038,4.60120,2470.577,2023-11-25T03:16:33Z
2023-11-25T01:17:08Z,42.805,6.029,13.3051,4.60132,2470.6,2023-11-25T03:19:36Z
2023-11-25T01:20:11Z,42.805,6.029,13.3046,4.60137,2470.6,2023-11-25T03:22:39Z
2023-11-25T01:23:14Z,42.805,6.029,13.3048,4.60139,2470.577,2023-11-25T03:25:42Z
2023-11-25T01:26:17Z,42.805,6.029,13.3045,4.60132,2470.577,2023-11-25T03:28:45Z
2023-11-25T01:29:20Z,42.805,6.029,13.3036,4.60132,2470.6,2023-11-25T03:31:48Z
2023-11-25T01:32:23Z,42.805,6.029,13.3041,4.60116,2470.6,2023-11-25T03:34:51Z
2023-11-25T01:35:26Z,42.805,6.029,13.3038,4.60125,2470.6,2023-11-25T03:37:54Z
2023-11-25T01:38:29Z,42.805,6.029,13.3040,4.60119,2470.591,2023-11-25T03:40:57Z
2023-11-25T01:41:32Z,42.805,6.029,13.3042,4.60126,2470.577,2023-11-25T03:44:00Z
2023-11-25T01:44:35Z,42.805,6.029,13.3048,4.60138,2470.614,2023-11-25T03:47:03Z
2023-11-25T01:47:38Z,42.805,6.029,13.3043,4.60135,2470.6,2023-11-25T03:50:06Z
2023-11-25T01:50:41Z,42.805,6.029,13.3041,4.60137,2470.6,2023-11-25T03:53:09Z
2023-11-25T01:53:45Z,42.805,6.029,13.3037,4.60131,2470.6,2023-11-25T03:56:13Z
2023-11-25T01:56:48Z,42.805,6.029,13.3038,4.60118,2470.624,2023-11-25T03:59:16Z
2023-11-25T01:59:51Z,42.805,6.029,13.3042,4.60117,2470.577,2023-11-25T04:02:19Z
2023-11-25T02:02:54Z,42.805,6.029,13.3047,4.60128,2470.624,2023-11-25T04:05:22Z
2023-11-25T02:05:57Z,42.805,6.029,13.3043,4.60127,2470.6,2023-11-25T04:08:25Z
2023-11-25T02:09:00Z,42.805,6.029,13.3042,4.60131,2470.624,2023-11-25T04:11:28Z
2023-11-25T02:12:03Z,42.805,6.029,13.3038,4.60122,2470.637,2023-11-25T04:14:31Z
2023-11-25T02:15:06Z,42.805,6.029,13.3036,4.60122,2470.624,2023-11-25T04:17:34Z
2023-11-25T02:18:09Z,42.805,6.029,13.3039,4.60124,2470.646,2023-11-25T04:20:37Z
2023-11-25T02:21:12Z,42.805,6.029,13.3040,4.60119,2470.624,2023-11-25T04:23:40Z
2023-11-25T02:24:15Z,42.805,6.029,13.3042,4.60117,2470.624,2023-11-25T04:26:43Z
2023-11-25T02:27:18Z,42.805,6.029,13.3039,4.60117,2470.646,2023-11-25T04:29:46Z
2023-11-25T02:30:22Z,42.805,6.029,13.3036,4.60114,2470.67,2023-11-25T04:32:50Z
2023-11-25T02:33:25Z,42.805,6.029,13.3041,4.60117,2470.614,2023-11-25T04:35:53Z
2023-11-25T02:36:28Z,42.805,6.029,13.3039,4.60128,2470.637,2023-11-25T04:38:56Z
2023-11-25T02:39:31Z,42.805,6.029,13.3046,4.60139,2470.684,2023-11-25T04:41:59Z
2023-11-25T02:42:34Z,42.805,6.029,13.3049,4.60129,2470.661,2023-11-25T04:45:02Z
2023-11-25T02:45:37Z,42.805,6.029,13.3034,4.60122,2470.661,2023-11-25T04:48:05Z
2023-11-25T02:48:40Z,42.805,6.029,13.3045,4.60120,2470.624,2023-11-25T04:51:08Z
2023-11-25T02:51:43Z,42.805,6.029,13.3041,4.60118,2470.646,2023-11-25T04:54:11Z
2023-11-25T02:54:46Z,42.805,6.029,13.3041,4.60121,2470.684,2023-11-25T04:57:14Z
2023-11-25T02:57:49Z,42.805,6.029,13.3038,4.60119,2470.646,2023-11-25T05:00:17Z
2023-11-25T03:00:52Z,42.805,6.029,13.3041,4.60117,2470.684,2023-11-25T05:03:20Z
2023-11-25T03:03:55Z,42.805,6.029,13.3039,4.60117,2470.646,2023-11-25T05:06:23Z
2023-11-25T03:06:58Z,42.805,6.029,13.3042,4.60128,2470.646,2023-11-25T05:09:27Z
2023-11-25T03:10:02Z,42.805,6.029,13.3043,4.60125,2470.67,2023-11-25T05:12:30Z
2023-11-25T03:13:05Z,42.805,6.029,13.3048,4.60121,2470.693,2023-11-25T05:15:33Z
2023-11-25T03:16:08Z,42.805,6.029,13.3043,4.60123,2470.646,2023-11-25T05:18:36Z
2023-11-25T03:19:11Z,42.805,6.029,13.3041,4.60126,2470.646,2023-11-25T05:21:39Z
2023-11-25T03:22:14Z,42.805,6.029,13.3042,4.60117,2470.707,2023-11-25T05:24:42Z
2023-11-25T03:25:17Z,42.805,6.029,13.3038,4.60117,2470.67,2023-11-25T05:27:45Z
2023-11-25T03:28:20Z,42.805,6.029,13.3043,4.60122,2470.684,2023-11-25T05:30:48Z
2023-11-25T03:31:23Z,42.805,6.029,13.3041,4.60120,2470.717,2023-11-25T05:33:51Z
2023-11-25T03:34:26Z,42.805,6.029,13.3041,4.60123,2470.693,2023-11-25T05:36:54Z
2023-11-25T03:37:29Z,42.805,6.029,13.3044,4.60134,2470.707,2023-11-25T05:39:57Z
2023-11-25T03:40:32Z,42.805,6.029,13.3048,4.60127,2470.717,2023-11-25T05:43:00Z
2023-11-25T03:43:35Z,42.805,6.029,13.3039,4.60122,2470.717,2023-11-25T05:46:03Z
2023-11-25T03:46:39Z,42.805,6.029,13.3048,4.60122,2470.67,2023-11-25T05:49:07Z
2023-11-25T03:49:42Z,42.805,6.029,13.3042,4.60121,2470.717,2023-11-25T05:52:10Z
2023-11-25T03:52:45Z,42.805,6.029,13.3042,4.60122,2470.73,2023-11-25T05:55:13Z
2023-11-25T03:55:48Z,42.805,6.029,13.3039,4.60121,2470.717,2023-11-25T05:58:16Z
2023-11-25T03:58:51Z,42.805,6.029,13.3040,4.60121,2470.693,2023-11-25T06:01:19Z
2023-11-25T04:01:54Z,42.805,6.029,13.3037,4.60120,2470.693,2023-11-25T06:04:22Z
2023-11-25T04:04:57Z,42.805,6.029,13.3042,4.60123,2470.693,2023-11-25T06:07:25Z
2023-11-25T04:08:00Z,42.805,6.029,13.3051,4.60132,2470.73,2023-11-25T06:10:28Z
2023-11-25T04:11:03Z,42.805,6.029,13.3040,4.60121,2470.707,2023-11-25T06:13:31Z
2023-11-25T04:14:06Z,42.805,6.029,13.3048,4.60126,2470.73,2023-11-25T06:16:34Z
2023-11-25T04:17:09Z,42.805,6.029,13.3046,4.60119,2470.73,2023-11-25T06:19:37Z
2023-11-25T04:20:12Z,42.805,6.029,13.3043,4.60137,2470.74,2023-11-25T06:22:40Z
2023-11-25T04:23:16Z,42.805,6.029,13.3041,4.60122,2470.717,2023-11-25T06:25:44Z
2023-11-25T04:26:19Z,42.805,6.029,13.3043,4.60127,2470.754,2023-11-25T06:28:47Z
2023-11-25T04:29:22Z,42.805,6.029,13.3046,4.60143,2470.717,2023-11-25T06:31:50Z
2023-11-25T04:32:25Z,42.805,6.029,13.3041,4.60127,2470.693,2023-11-25T06:34:53Z
2023-11-25T04:35:28Z,42.805,6.029,13.3048,4.60124,2470.717,2023-11-25T06:37:56Z
2023-11-25T04:38:31Z,42.805,6.029,13.3046,4.60125,2470.73,2023-11-25T06:40:59Z
2023-11-25T04:41:34Z,42.805,6.029,13.3043,4.60124,2470.73,2023-11-25T06:44:02Z
2023-11-25T04:44:37Z,42.805,6.029,13.3046,4.60125,2470.717,2023-11-25T06:47:05Z
2023-11-25T04:47:40Z,42.805,6.029,13.3046,4.60125,2470.693,2023-11-25T06:50:08Z
2023-11-25T04:50:43Z,42.805,6.029,13.3043,4.60123,2470.707,2023-11-25T06:53:11Z
2023-11-25T04:53:46Z,42.805,6.029,13.3046,4.60125,2470.74,2023-11-25T06:56:14Z
2023-11-25T04:56:49Z,42.805,6.029,13.3043,4.60127,2470.717,2023-11-25T06:59:17Z
2023-11-25T04:59:52Z,42.805,6.029,13.3046,4.60130,2470.693,2023-11-25T07:02:20Z
2023-11-25T05:02:56Z,42.805,6.029,13.3036,4.60129,2470.73,2023-11-25T07:05:24Z
2023-11-25T05:05:59Z,42.805,6.029,13.3041,4.60122,2470.74,2023-11-25T07:08:27Z
2023-11-25T05:09:02Z,42.805,6.029,13.3042,4.60117,2470.717,2023-11-25T07:11:30Z
2023-11-25T05:12:05Z,42.805,6.029,13.3041,4.60126,2470.74,2023-11-25T07:14:33Z
2023-11-25T05:15:08Z,42.805,6.029,13.3045,4.60125,2470.754,2023-11-25T07:17:36Z
2023-11-25T05:18:11Z,42.805,6.029,13.3039,4.60116,2470.763,2023-11-25T07:20:39Z
2023-11-25T05:21:14Z,42.805,6.029,13.3043,4.60126,2470.73,2023-11-25T07:23:42Z
2023-11-25T05:24:17Z,42.805,6.029,13.3035,4.60114,2470.74,2023-11-25T07:26:45Z
2023-11-25T05:27:20Z,42.805,6.029,13.3040,4.60119,2470.763,2023-11-25T07:29:48Z
2023-11-25T05:30:24Z,42.805,6.029,13.3037,4.60116,2470.74,2023-11-25T07:32:52Z
2023-11-25T05:33:27Z,42.805,6.029,13.3040,4.60117,2470.74,2023-11-25T07:35:55Z
2023-11-25T05:36:30Z,42.805,6.029,13.3036,4.60114,2470.74,2023-11-25T07:38:58Z
2023-11-25T05:39:33Z,42.805,6.029,13.3037,4.60114,2470.717,2023-11-25T07:42:01Z
2023-11-25T05:42:36Z,42.805,6.029,13.3035,4.60114,2470.717,2023-11-25T07:45:04Z
2023-11-25T05:45:39Z,42.805,6.029,13.3039,4.60119,2470.717,2023-11-25T07:48:07Z
2023-11-25T05:48:42Z,42.805,6.029,13.3039,4.60116,2470.754,2023-11-25T07:51:10Z
2023-11-25T05:51:45Z,42.805,6.029,13.3041,4.60114,2470.754,2023-11-25T07:54:13Z
2023-11-25T05:54:48Z,42.805,6.029,13.3038,4.60127,2470.74,2023-11-25T07:57:16Z
2023-11-25T05:57:51Z,42.805,6.029,13.3041,4.60125,2470.754,2023-11-25T08:00:19Z
2023-11-25T06:00:54Z,42.805,6.029,13.3039,4.60114,2470.74,2023-11-25T08:03:22Z
2023-11-25T06:03:57Z,42.805,6.029,13.3041,4.60125,2470.717,2023-11-25T08:06:26Z
2023-11-25T06:07:01Z,42.805,6.029,13.3037,4.60114,2470.74,2023-11-25T08:09:29Z
2023-11-25T06:10:04Z,42.805,6.029,13.3041,4.60133,2470.74,2023-11-25T08:12:32Z
2023-11-25T06:13:07Z,42.805,6.029,13.3041,4.60140,2470.717,2023-11-25T08:15:35Z
2023-11-25T06:16:10Z,42.805,6.029,13.3041,4.60119,2470.707,2023-11-25T08:18:38Z
2023-11-25T06:19:13Z,42.805,6.029,13.3035,4.60114,2470.74,2023-11-25T08:21:41Z
2023-11-25T06:22:16Z,42.805,6.029,13.3036,4.60117,2470.763,2023-11-25T08:24:44Z
2023-11-25T06:25:19Z,42.805,6.029,13.3037,4.60117,2470.717,2023-11-25T08:27:47Z
2023-11-25T06:28:22Z,42.805,6.029,13.3034,4.60114,2470.693,2023-11-25T08:30:50Z
2023-11-25T06:31:25Z,42.805,6.029,13.3039,4.60120,2470.754,2023-11-25T08:33:53Z
2023-11-25T06:34:28Z,42.805,6.029,13.3036,4.60115,2470.74,2023-11-25T08:36:56Z
2023-11-25T06:37:31Z,42.805,6.029,13.3039,4.60117,2470.754,2023-11-25T08:39:59Z
2023-11-25T06:40:34Z,42.805,6.029,13.3033,4.60119,2470.717,2023-11-25T08:43:02Z
2023-11-25T06:43:38Z,42.805,6.029,13.3041,4.60118,2470.74,2023-11-25T08:46:06Z
2023-11-25T06:46:41Z,42.805,6.029,13.3032,4.60111,2470.74,2023-11-25T08:49:09Z
2023-11-25T06:49:44Z,42.805,6.029,13.3041,4.60130,2470.73,2023-11-25T08:52:12Z
2023-11-25T06:52:47Z,42.805,6.029,13.3042,4.60110,2470.74,2023-11-25T08:55:15Z
2023-11-25T06:55:50Z,42.805,6.029,13.3035,4.60125,2470.717,2023-11-25T08:58:18Z
2023-11-25T06:58:53Z,42.805,6.029,13.3039,4.60116,2470.73,2023-11-25T09:01:21Z
2023-11-25T07:01:56Z,42.805,6.029,13.3036,4.60123,2470.717,2023-11-25T09:04:24Z
2023-11-25T07:04:59Z,42.805,6.029,13.3035,4.60118,2470.693,2023-11-25T09:07:27Z
2023-11-25T07:08:02Z,42.805,6.029,13.3048,4.60126,2470.74,2023-11-25T09:10:30Z
2023-11-25T07:11:05Z,42.805,6.029,13.3038,4.60127,2470.707,2023-11-25T09:13:33Z
2023-11-25T07:14:08Z,42.805,6.029,13.3037,4.60126,2470.693,2023-11-25T09:16:36Z
2023-11-25T07:17:11Z,42.805,6.029,13.3039,4.60122,2470.74,2023-11-25T09:19:39Z
2023-11-25T07:20:14Z,42.805,6.029,13.3046,4.60132,2470.693,2023-11-25T09:22:43Z
2023-11-25T07:23:18Z,42.805,6.029,13.3049,4.60131,2470.74,2023-11-25T09:25:46Z
2023-11-25T07:26:21Z,42.805,6.029,13.3036,4.60134,2470.717,2023-11-25T09:28:49Z
2023-11-25T07:29:24Z,42.805,6.029,13.3043,4.60127,2470.717,2023-11-25T09:31:52Z
2023-11-25T07:32:27Z,42.805,6.029,13.3038,4.60119,2470.693,2023-11-25T09:34:55Z
2023-11-25T07:35:30Z,42.805,6.029,13.3030,4.60117,2470.707,2023-11-25T09:37:58Z
2023-11-25T07:38:33Z,42.805,6.029,13.3038,4.60122,2470.717,2023-11-25T09:41:01Z
2023-11-25T07:41:36Z,42.805,6.029,13.3036,4.60110,2470.707,2023-11-25T09:44:04Z
2023-11-25T07:44:39Z,42.805,6.029,13.3037,4.60112,2470.693,2023-11-25T09:47:07Z
2023-11-25T07:47:42Z,42.805,6.029,13.3036,4.60117,2470.717,2023-11-25T09:50:10Z
2023-11-25T07:50:45Z,42.805,6.029,13.3042,4.60117,2470.693,2023-11-25T09:53:14Z
2023-11-25T07:53:49Z,42.805,6.029,13.3039,4.60112,2470.693,2023-11-25T09:56:17Z
2023-11-25T07:56:52Z,42.805,6.029,13.3033,4.60121,2470.693,2023-11-25T09:59:20Z
2023-11-25T07:59:55Z,42.805,6.029,13.3036,4.60117,2470.693,2023-11-25T10:02:23Z
2023-11-25T08:02:58Z,42.805,6.029,13.3035,4.60113,2470.684,2023-11-25T10:05:26Z
2023-11-25T08:06:01Z,42.805,6.029,13.3043,4.60135,2470.684,2023-11-25T10:08:29Z
2023-11-25T08:09:04Z,42.805,6.029,13.3038,4.60127,2470.67,2023-11-25T10:11:32Z
2023-11-25T08:12:07Z,42.805,6.029,13.3040,4.60141,2470.717,2023-11-25T10:14:35Z
2023-11-25T08:15:10Z,42.805,6.029,13.3045,4.60121,2470.67,2023-11-25T10:17:38Z
2023-11-25T08:18:13Z,42.805,6.029,13.3042,4.60122,2470.693,2023-11-25T10:20:41Z
2023-11-25T08:21:16Z,42.805,6.029,13.3060,4.60144,2470.693,2023-11-25T10:23:44Z
2023-11-25T08:24:19Z,42.805,6.029,13.3039,4.60141,2470.67,2023-11-25T10:26:47Z
2023-11-25T08:27:23Z,42.805,6.029,13.3046,4.60133,2470.67,2023-11-25T10:29:51Z
2023-11-25T08:30:26Z,42.805,6.029,13.3040,4.60127,2470.693,2023-11-25T10:32:54Z
2023-11-25T08:33:29Z,42.805,6.029,13.3034,4.60120,2470.707,2023-11-25T10:35:57Z
2023-11-25T08:36:32Z,42.805,6.029,13.3041,4.60133,2470.67,2023-11-25T10:39:00Z
2023-11-25T08:39:35Z,42.805,6.029,13.3052,4.60128,2470.646,2023-11-25T10:42:03Z
2023-11-25T08:42:38Z,42.805,6.029,13.3035,4.60125,2470.67,2023-11-25T10:45:06Z
2023-11-25T08:45:41Z,42.805,6.029,13.3041,4.60131,2470.646,2023-11-25T10:48:09Z
2023-11-25T08:48:44Z,42.805,6.029,13.3036,4.60127,2470.646,2023-11-25T10:51:12Z
2023-11-25T08:51:47Z,42.805,6.029,13.3043,4.60127,2470.661,2023-11-25T10:54:15Z
2023-11-25T08:54:50Z,42.805,6.029,13.3046,4.60125,2470.67,2023-11-25T10:57:18Z
2023-11-25T08:57:53Z,42.805,6.029,13.3048,4.60143,2470.67,2023-11-25T11:00:21Z
2023-11-25T09:00:56Z,42.805,6.029,13.3048,4.60141,2470.684,2023-11-25T11:03:24Z
2023-11-25T09:03:59Z,42.805,6.029,13.3047,4.60144,2470.67,2023-11-25T11:06:28Z
2023-11-25T09:07:03Z,42.805,6.029,13.3039,4.60132,2470.624,2023-11-25T11:09:31Z
2023-11-25T09:10:06Z,42.805,6.029,13.3043,4.60131,2470.661,2023-11-25T11:12:34Z
2023-11-25T09:13:09Z,42.805,6.029,13.3041,4.60142,2470.646,2023-11-25T11:15:37Z
2023-11-25T09:16:12Z,42.805,6.029,13.3042,4.60126,2470.646,2023-11-25T11:18:40Z
2023-11-25T09:19:15Z,42.805,6.029,13.3049,4.60129,2470.624,2023-11-25T11:21:43Z
2023-11-25T09:22:18Z,42.805,6.029,13.3047,4.60135,2470.6,2023-11-25T11:24:46Z
2023-11-25T09:25:21Z,42.805,6.029,13.3039,4.60125,2470.646,2023-11-25T11:27:49Z
2023-11-25T09:28:24Z,42.805,6.029,13.3034,4.60116,2470.646,2023-11-25T11:30:52Z
2023-11-25T09:31:26Z,42.805,6.029,13.3033,4.60114,2470.614,2023-11-25T11:33:54Z
2023-11-25T09:34:29Z,42.805,6.029,13.3041,4.60137,2470.624,2023-11-25T11:36:57Z
2023-11-25T09:37:32Z,42.805,6.029,13.3034,4.60116,2470.637,2023-11-25T11:40:00Z
2023-11-25T09:40:35Z,42.805,6.029,13.3031,4.60110,2470.614,2023-11-25T11:43:03Z
2023-11-25T09:43:39Z,42.805,6.029,13.3039,4.60127,2470.637,2023-11-25T11:46:07Z
2023-11-25T09:46:42Z,42.805,6.029,13.3051,4.60135,2470.624,2023-11-25T11:49:10Z
2023-11-25T09:49:45Z,42.805,6.029,13.3048,4.60122,2470.637,2023-11-25T11:52:13Z
2023-11-25T09:52:48Z,42.805,6.029,13.3036,4.60127,2470.624,2023-11-25T11:55:16Z
2023-11-25T09:55:51Z,42.805,6.029,13.3036,4.60127,2470.646,2023-11-25T11:58:19Z
2023-11-25T09:58:54Z,42.805,6.029,13.3044,4.60136,2470.624,2023-11-25T12:01:22Z
2023-11-25T10:01:57Z,42.805,6.029,13.3039,4.60131,2470.6,2023-11-25T12:04:25Z
2023-11-25T10:05:00Z,42.805,6.029,13.3041,4.60119,2470.6,2023-11-25T12:07:28Z
2023-11-25T10:08:03Z,42.805,6.029,13.3036,4.60121,2470.637,2023-11-25T12:10:31Z
2023-11-25T10:11:06Z,42.805,6.029,13.3036,4.60130,2470.637,2023-11-25T12:13:34Z
2023-11-25T10:14:09Z,42.805,6.029,13.3036,4.60120,2470.614,2023-11-25T12:16:37Z
2023-11-25T10:17:12Z,42.805,6.029,13.3031,4.60113,2470.6,2023-11-25T12:19:40Z
2023-11-25T10:20:16Z,42.805,6.029,13.3040,4.60117,2470.614,2023-11-25T12:22:44Z
2023-11-25T10:23:19Z,42.805,6.029,13.3051,4.60140,2470.637,2023-11-25T12:25:47Z
2023-11-25T10:26:22Z,42.805,6.029,13.3039,4.60125,2470.591,2023-11-25T12:28:50Z
2023-11-25T10:29:25Z,42.805,6.029,13.3036,4.60119,2470.614,2023-11-25T12:31:53Z
2023-11-25T10:32:28Z,42.805,6.029,13.3036,4.60111,2470.6,2023-11-25T12:34:56Z
2023-11-25T10:35:31Z,42.805,6.029,13.3037,4.60136,2470.6,2023-11-25T12:37:59Z
2023-11-25T10:38:34Z,42.805,6.029,13.3035,4.60114,2470.6,2023-11-25T12:41:02Z
2023-11-25T10:41:37Z,42.805,6.029,13.3036,4.60119,2470.577,2023-11-25T12:44:05Z
2023-11-25T10:44:40Z,42.805,6.029,13.3032,4.60114,2470.614,2023-11-25T12:47:08Z
2023-11-25T10:47:43Z,42.805,6.029,13.3032,4.60113,2470.624,2023-11-25T12:50:11Z
2023-11-25T10:50:46Z,42.805,6.029,13.3034,4.60113,2470.577,2023-11-25T12:53:14Z
2023-11-25T10:53:50Z,42.805,6.029,13.3034,4.60119,2470.614,2023-11-25T12:56:18Z
2023-11-25T10:56:53Z,42.805,6.029,13.3034,4.60125,2470.6,2023-11-25T12:59:21Z
2023-11-25T10:59:56Z,42.805,6.029,13.3042,4.60129,2470.6,2023-11-25T13:02:24Z
2023-11-25T11:02:59Z,42.805,6.029,13.3043,4.60114,2470.553,2023-11-25T13:05:27Z
2023-11-25T11:06:02Z,42.805,6.029,13.3037,4.60119,2470.614,2023-11-25T13:08:30Z
2023-11-25T11:09:05Z,42.805,6.029,13.3034,4.60114,2470.553,2023-11-25T13:11:33Z
2023-11-25T11:12:08Z,42.805,6.029,13.3031,4.60114,2470.553,2023-11-25T13:14:36Z
2023-11-25T11:15:11Z,42.805,6.029,13.3039,4.60123,2470.577,2023-11-25T13:17:39Z
2023-11-25T11:18:14Z,42.805,6.029,13.3032,4.60115,2470.577,2023-11-25T13:20:42Z
2023-11-25T11:21:17Z,42.805,6.029,13.3040,4.60127,2470.577,2023-11-25T13:23:45Z
2023-11-25T11:24:20Z,42.805,6.029,13.3031,4.60112,2470.553,2023-11-25T13:26:48Z
2023-11-25T11:27:23Z,42.805,6.029,13.3027,4.60110,2470.577,2023-11-25T13:29:51Z
2023-11-25T11:30:26Z,42.805,6.029,13.3035,4.60119,2470.591,2023-11-25T13:32:55Z
2023-11-25T11:33:30Z,42.805,6.029,13.3033,4.60110,2470.6,2023-11-25T13:35:58Z
2023-11-25T11:36:33Z,42.805,6.029,13.3042,4.60116,2470.567,2023-11-25T13:39:01Z
2023-11-25T11:39:36Z,42.805,6.029,13.3043,4.60121,2470.553,2023-11-25T13:42:04Z
2023-11-25T11:42:39Z,42.805,6.029,13.3039,4.60114,2470.614,2023-11-25T13:45:07Z
2023-11-25T11:45:42Z,42.805,6.029,13.3041,4.60119,2470.53,2023-11-25T13:48:10Z
2023-11-25T11:48:45Z,42.805,6.029,13.3034,4.60114,2470.53,2023-11-25T13:51:13Z
2023-11-25T11:51:48Z,42.805,6.029,13.3034,4.60114,2470.553,2023-11-25T13:54:16Z
2023-11-25T11:54:51Z,42.805,6.029,13.3033,4.60120,2470.553,2023-11-25T13:57:19Z
2023-11-25T11:57:54Z,42.805,6.029,13.3041,4.60125,2470.567,2023-11-25T14:00:22Z
2023-11-25T12:00:57Z,42.805,6.029,13.3036,4.60120,2470.591,2023-11-25T14:03:25Z
2023-11-25T12:04:00Z,42.805,6.029,13.3036,4.60117,2470.553,2023-11-25T14:06:28Z
2023-11-25T12:07:04Z,42.805,6.029,13.3041,4.60127,2470.53,2023-11-25T14:09:32Z
2023-11-25T12:10:07Z,42.805,6.029,13.3042,4.60123,2470.544,2023-11-25T14:12:35Z
2023-11-25T12:13:10Z,42.805,6.029,13.3039,4.60124,2470.553,2023-11-25T14:15:38Z
2023-11-25T12:16:13Z,42.805,6.029,13.3051,4.60135,2470.553,2023-11-25T14:18:41Z
2023-11-25T12:19:16Z,42.805,6.029,13.3039,4.60122,2470.553,2023-11-25T14:21:44Z
2023-11-25T12:22:19Z,42.805,6.029,13.3038,4.60117,2470.53,2023-11-25T14:24:47Z
2023-11-25T12:25:22Z,42.805,6.029,13.3036,4.60123,2470.53,2023-11-25T14:27:50Z
2023-11-25T12:28:25Z,42.805,6.029,13.3037,4.60144,2470.553,2023-11-25T14:30:53Z
2023-11-25T12:31:28Z,42.805,6.029,13.3046,4.60137,2470.567,2023-11-25T14:33:56Z
2023-11-25T12:34:31Z,42.805,6.029,13.3035,4.60117,2470.553,2023-11-25T14:36:59Z
2023-11-25T12:37:34Z,42.805,6.029,13.3034,4.60107,2470.567,2023-11-25T14:40:02Z
2023-11-25T12:40:37Z,42.805,6.029,13.3036,4.60111,2470.544,2023-11-25T14:43:05Z
2023-11-25T12:43:41Z,42.805,6.029,13.3034,4.60111,2470.553,2023-11-25T14:46:09Z
2023-11-25T12:46:44Z,42.805,6.029,13.3036,4.60119,2470.544,2023-11-25T14:49:12Z
2023-11-25T12:49:47Z,42.805,6.029,13.3036,4.60110,2470.507,2023-11-25T14:52:15Z
2023-11-25T12:52:50Z,42.805,6.029,13.3034,4.60113,2470.53,2023-11-25T14:55:18Z
2023-11-25T12:55:53Z,42.805,6.029,13.3034,4.60110,2470.53,2023-11-25T14:58:21Z
2023-11-25T12:58:56Z,42.805,6.029,13.3031,4.60112,2470.553,2023-11-25T15:01:24Z
2023-11-25T13:01:59Z,42.805,6.029,13.3035,4.60121,2470.53,2023-11-25T15:04:27Z
2023-11-25T13:05:02Z,42.805,6.029,13.3037,4.60116,2470.577,2023-11-25T15:07:30Z
2023-11-25T13:08:05Z,42.805,6.029,13.3038,4.60140,2470.53,2023-11-25T15:10:33Z
2023-11-25T13:11:08Z,42.805,6.029,13.3037,4.60126,2470.53,2023-11-25T15:13:36Z
2023-11-25T13:14:11Z,42.805,6.029,13.3035,4.60115,2470.553,2023-11-25T15:16:39Z
2023-11-25T13:17:14Z,42.805,6.029,13.3031,4.60112,2470.544,2023-11-25T15:19:43Z
2023-11-25T13:20:18Z,42.805,6.029,13.3040,4.60122,2470.577,2023-11-25T15:22:46Z
2023-11-25T13:23:21Z,42.805,6.029,13.3042,4.60126,2470.544,2023-11-25T15:25:49Z
2023-11-25T13:26:24Z,42.805,6.029,13.3043,4.60137,2470.553,2023-11-25T15:28:52Z
2023-11-25T13:29:27Z,42.805,6.029,13.3045,4.60157,2470.53,2023-11-25T15:31:55Z
2023-11-25T13:32:30Z,42.805,6.029,13.3039,4.60135,2470.553,2023-11-25T15:34:58Z
2023-11-25T13:35:33Z,42.805,6.029,13.3036,4.60150,2470.53,2023-11-25T15:38:01Z
2023-11-25T13:38:36Z,42.805,6.029,13.3036,4.60123,2470.544,2023-11-25T15:41:04Z
2023-11-25T13:41:39Z,42.805,6.029,13.3043,4.60135,2470.553,2023-11-25T15:44:07Z
2023-11-25T13:44:42Z,42.805,6.029,13.3037,4.60122,2470.591,2023-11-25T15:47:10Z
2023-11-25T13:47:45Z,42.805,6.029,13.3050,4.60125,2470.553,2023-11-25T15:50:13Z
2023-11-25T13:50:48Z,42.805,6.029,13.3035,4.60125,2470.553,2023-11-25T15:53:16Z
2023-11-25T13:53:51Z,42.805,6.029,13.3035,4.60119,2470.563,2023-11-25T15:56:20Z
2023-11-25T13:56:55Z,42.805,6.029,13.3043,4.60137,2470.591,2023-11-25T15:59:23Z
2023-11-25T13:59:58Z,42.805,6.029,13.3038,4.60130,2470.577,2023-11-25T16:02:26Z
2023-11-25T14:03:01Z,42.805,6.029,13.3036,4.60114,2470.553,2023-11-25T16:05:29Z
2023-11-25T14:06:04Z,42.805,6.029,13.3043,4.60134,2470.577,2023-11-25T16:08:32Z
2023-11-25T14:09:07Z,42.805,6.029,13.3041,4.60122,2470.553,2023-11-25T16:11:35Z
2023-11-25T14:12:10Z,42.805,6.029,13.3035,4.60123,2470.6,2023-11-25T16:14:38Z
2023-11-25T14:15:13Z,42.805,6.029,13.3035,4.60125,2470.614,2023-11-25T16:17:41Z
2023-11-25T14:18:16Z,42.805,6.029,13.3036,4.60114,2470.577,2023-11-25T16:20:44Z
2023-11-25T14:21:19Z,42.805,6.029,13.3035,4.60111,2470.577,2023-11-25T16:23:47Z
2023-11-25T14:24:22Z,42.805,6.029,13.3042,4.60112,2470.591,2023-11-25T16:26:50Z
2023-11-25T14:27:25Z,42.805,6.029,13.3031,4.60111,2470.577,2023-11-25T16:29:54Z
2023-11-25T14:30:29Z,42.805,6.029,13.3033,4.60112,2470.6,2023-11-25T16:32:57Z
2023-11-25T14:33:32Z,42.805,6.029,13.3035,4.60122,2470.6,2023-11-25T16:36:00Z
2023-11-25T14:36:35Z,42.805,6.029,13.3037,4.60135,2470.577,2023-11-25T16:39:03Z
2023-11-25T14:39:38Z,42.805,6.029,13.3037,4.60125,2470.624,2023-11-25T16:42:06Z
2023-11-25T14:42:41Z,42.805,6.029,13.3037,4.60117,2470.624,2023-11-25T16:45:09Z
2023-11-25T14:45:44Z,42.805,6.029,13.3040,4.60120,2470.614,2023-11-25T16:48:12Z
2023-11-25T14:48:47Z,42.805,6.029,13.3036,4.60117,2470.591,2023-11-25T16:51:15Z
2023-11-25T14:51:50Z,42.805,6.029,13.3044,4.60137,2470.553,2023-11-25T16:54:18Z
2023-11-25T14:54:53Z,42.805,6.029,13.3051,4.60125,2470.637,2023-11-25T16:57:21Z
2023-11-25T14:57:56Z,42.805,6.029,13.3039,4.60125,2470.6,2023-11-25T17:00:24Z
2023-11-25T15:00:59Z,42.805,6.029,13.3039,4.60133,2470.624,2023-11-25T17:03:27Z